Orbital Elements at Epoch 2459200.5 (2020-Dec-17.0) TDB
Reference: JPL 24 (heliocentric ecliptic J2000)
Element | Value | Uncertainty (1-sigma) | Units |
e | .142598479781299 | 4.7417e-08 | |
a | 2.222866641222265 | 1.0927e-08 | au |
q | 1.905889237427408 | 1.0735e-07 | au |
i | 3.071738323065202 | 4.3903e-06 | deg |
node | 302.4326108664192 | 8.784e-05 | deg |
peri | 44.03023906299592 | 8.9019e-05 | deg |
M | 348.2262316929251 | 1.4049e-05 | deg |
tp | 2459240.089637382044 (2021-Jan-25.58963738) | 4.7322e-05 | TDB |
period | 1210.510440312609 3.31 | 8.9262e-06 2.444e-08 | d yr |
n | .2973952045444824 | 2.193e-09 | deg/d |
Q | 2.539844045017122 | 1.2486e-08 | au |
|
| | Orbit Determination Parameters
Additional Information
|